Location: Taukkyan
(23.1052°N, 94.0030°E)
Time: 11:51:01
(UTC+00:00)

MetOp-B - Pass Details

Date: 06 July 2020
Orbit: 819 x 821 km, 98.7° (Epoch: 14 August)

Event Time Altitude Azimuth Distance (km) Brightness Sun altitude
Exits shadow 15:02:47 77° 321° (NW) 842 4.1 -29.0°
Drops below altitude 10° 15:07:47 10° 346° (NNW) 2,416 7.3 -29.8°
Sets 15:10:08 0° 347° (NNW) 3,351 8.2 -30.2°
